sat.trackr.live / text

‹ back to catalog

SENTINEL-1A

NORAD 39634 · 2014-016A

PAYLOAD ACTIVE UNKNOWN

§ Identity

Operator
Country
ESA
Launch date
2014-04-03
Launch site
FRGUI
Launch vehicle
Mass (kg)
RCS (m²)
4.97

Purposes: earth_obs

External: N2YO · Heavens-Above · Gunter

§ Orbital elements

Epoch: 2026-05-25T04:34:07.591296Z

Period
98.68 min
Inclination
98.1788°
Eccentricity
0.0001416
Mean motion
14.59199996 rev/d
Perigee alt
694.8 km
Apogee alt
696.8 km
Semi-major
7,073.9 km
B*
5.7952e-5
RAAN
153.0594°
Arg perigee
84.4784°
Mean anomaly
275.6577°
Rev number
64,666

§ Raw data

SENTINEL-1A1 39634U 14016A   26145.19036564  .00000227  00000+0  57952-4 0  99912 39634  98.1788 153.0594 0001416  84.4784 275.6577 14.59199996646661

JSON: /api/v1/satellites/39634 · /tle

For live sub-satellite position, see the globe view (requires WebGL).

§ Visibility from observer

Set your observer location to see the next 7 days of passes ≥ 10°. The values pass through the URL so the page stays shareable.

No JS? Fill the form by hand. The geolocation button needs JavaScript.